Home > Weather > Fort Simpson > Past weeks

Flag for Canada Weather for the Past 2 Weeks in Fort Simpson, Northwest Territories, Canada

Now
1 °F

Partly cloudy.


Feels Like: -11 °F
Forecast: -4 / 1 °F
Wind: 7 mph from Northwest

Location: Fort Simpson

Current Time: Feb 9, 2016 at 10:26:12 PM

Latest Report: Feb 9, 2016 at 9:00 PM


Visibility: 15 mi

Pressure: 30.50 "Hg

Humidity: 78%

Dew point: -4 °F

Location of Fort SimpsonLocation

Historic Weather in Fort Simpson — Graph

°F

Fort Simpson Temperature Yesterday

Maximum temperature yesterday: -2 °F (at 3:00 PM)
Minimum temperature yesterday: -17 °F (at 10:00 AM)
Average temperature yesterday: -7 °F

High & Low Weather Summary for the Past Weeks

 TemperatureHumidityPressure
High10 °F (Jan 27, 10:00 PM)85% (Jan 26, 11:00 AM)30.50 "Hg (Jan 26, 11:00 AM)
Low-17 °F (Feb 8, 10:00 AM)64% (Feb 7, 12:00 PM)29.18 "Hg (Jan 28, 3:00 PM)
Average-1 °F76%29.94 "Hg
* Reported Jan 25 9:00 PM — Feb 9 9:00 PM, Fort Simpson, Weather by CustomWeather, © 2016

Note: Actual official high and low records may vary slightly from our data, if they occured in-between our weather recording intervals... More about our weather records

Advertising

Fort Simpson Weather History for the Previous 24 Hours

 ConditionsComfort  
Time TempWeatherWind HumidityBarometerVisibility
9:00 PM
Tue, Feb 9
1 °FPartly cloudy.7 mph78%30.50 "Hg15 mi
8:00 PM1 °FPassing clouds.9 mph78%30.48 "Hg15 mi
7:00 PM1 °FMostly cloudy.13 mph78%30.47 "Hg15 mi
6:00 PM3 °FMostly cloudy.10 mph72%30.45 "Hg15 mi
5:00 PM3 °FMore clouds than sun.12 mph72%30.42 "Hg15 mi
4:00 PM3 °FBroken clouds.13 mph72%30.39 "Hg15 mi
3:00 PM3 °FBroken clouds.13 mph72%30.37 "Hg15 mi
2:00 PM3 °FPartly sunny.15 mph72%30.34 "Hg15 mi
1:00 PM3 °FPartly sunny.12 mph72%30.31 "Hg15 mi
12:48 PM3 °FPartly sunny.12 mph72%30.31 "Hg15 mi
12:00 PM1 °FLight snow. Partly sunny.10 mph71%30.29 "Hg15 mi
11:00 AM1 °FLight snow. Mostly cloudy.10 mph78%30.26 "Hg2 mi
10:00 AM1 °FLight snow. Overcast.7 mph78%30.24 "Hg1 mi
9:00 AM1 °FLight snow. Overcast.3 mph78%30.22 "Hg1 mi
8:00 AM1 °FLight snow. Overcast.No wind78%30.22 "Hg1 mi
7:00 AM1 °FSnow. Ice fog.2 mph78%30.22 "Hg1 mi
6:00 AM1 °FLight snow. Overcast.2 mph78%30.22 "Hg1 mi
5:00 AM1 °FLight snow. Overcast.2 mph71%30.24 "Hg1 mi
4:00 AM0 °FLight snow. Overcast.2 mph78%30.25 "Hg2 mi
3:00 AM0 °FLight snow. Low clouds.3 mph78%30.28 "Hg4 mi
2:00 AM0 °FLow clouds.6 mph78%30.30 "Hg15 mi
1:00 AM-2 °FLow clouds.5 mph77%30.33 "Hg15 mi
12:00 AM-2 °FLow clouds.5 mph77%30.33 "Hg15 mi
11:00 PM
Mon, Feb 8
-2 °FOvercast.3 mph77%30.33 "Hg15 mi
10:00 PM-2 °FOvercast.2 mph77%30.37 "Hg15 mi
Weather by CustomWeather, © 2016

See weather overviewHow to use our weather pages